| time (UTC) | temp C | wind direction | speed KPH | gust KPH | rain 1hr cm | rain 24hr cm | rain mn cm | humidity % | barometer mb |
| 20260901082006 | 20 | 117 | 0.0 | 0.0 | 0.00 | 0.00 | 0.00 | 87 | 1010.1 |
| 20260901081506 | 20 | 117 | 0.0 | 0.0 | 0.00 | 0.00 | 0.00 | 88 | 1010.1 |
| 20260901081006 | 20 | 117 | 0.0 | 0.0 | 0.00 | 0.00 | 0.00 | 88 | 1010.1 |
| 20260901080006 | 20 | 117 | 0.0 | 0.0 | 0.00 | 0.00 | 0.00 | 88 | 1010.1 |
| 20260901075506 | 20 | 117 | 0.0 | 0.0 | 0.00 | 0.00 | 0.00 | 87 | 1010.2 |
| 20260901075006 | 20 | 117 | 0.0 | 0.0 | 0.00 | 0.00 | 0.00 | 88 | 1010.3 |
| 20260901074505 | 20 | 117 | 0.0 | 1.6 | 0.00 | 0.00 | 0.00 | 88 | 1010.3 |
| 20260901074006 | 20 | 117 | 0.0 | 1.6 | 0.00 | 0.00 | 0.00 | 88 | 1010.4 |
| 20260901073506 | 20 | 117 | 0.0 | 0.0 | 0.00 | 0.00 | 0.00 | 87 | 1010.4 |
| 20260901073006 | 20 | 117 | 0.0 | 0.0 | 0.00 | 0.00 | 0.00 | 87 | 1010.5 |
| 20260901072506 | 20 | 117 | 0.0 | 0.0 | 0.00 | 0.00 | 0.00 | 87 | 1010.6 |
| 20260901072006 | 21 | 117 | 0.0 | 0.0 | 0.00 | 0.00 | 0.00 | 87 | 1010.5 |
| 20260901071506 | 21 | 117 | 0.0 | 0.0 | 0.00 | 0.00 | 0.00 | 86 | 1010.5 |
| 20260901071006 | 21 | 117 | 0.0 | 0.0 | 0.00 | 0.00 | 0.00 | 86 | 1010.4 |
| 20260901070506 | 21 | 117 | 0.0 | 0.0 | 0.00 | 0.00 | 0.00 | 86 | 1010.4 |
| 20260901070006 | 21 | 117 | 0.0 | 0.0 | 0.00 | 0.00 | 0.00 | 86 | 1010.5 |
| 20260901065006 | 21 | 117 | 0.0 | 0.0 | 0.00 | 0.00 | 0.00 | 86 | 1010.5 |
| 20260901064506 | 21 | 117 | 0.0 | 0.0 | 0.00 | 0.00 | 0.00 | 86 | 1010.5 |
| 20260901064007 | 21 | 117 | 0.0 | 0.0 | 0.00 | 0.00 | 0.00 | 86 | 1010.4 |
| 20260901063506 | 21 | 117 | 0.0 | 1.6 | 0.00 | 0.00 | 0.00 | 86 | 1010.5 |
| 20260901063006 | 21 | 117 | 0.0 | 0.0 | 0.00 | 0.00 | 0.00 | 85 | 1010.5 |
| 20260901062505 | 21 | 117 | 0.0 | 1.6 | 0.00 | 0.00 | 0.00 | 85 | 1010.5 |
| 20260901061506 | 22 | 117 | 0.0 | 0.0 | 0.00 | 0.00 | 0.00 | 84 | 1010.4 |
| 20260901061006 | 22 | 117 | 0.0 | 0.0 | 0.00 | 0.00 | 0.00 | 84 | 1010.3 |
| 20260901060006 | 22 | 117 | 0.0 | 1.6 | 0.00 | 0.00 | 0.00 | 83 | 1010.3 |
| 20260901055505 | 22 | 117 | 0.0 | 1.6 | 0.00 | 0.00 | 0.00 | 83 | 1010.2 |
| 20260901055006 | 22 | 117 | 0.0 | 1.6 | 0.00 | 0.00 | 0.00 | 83 | 1010.2 |
| 20260901054505 | 22 | 117 | 0.0 | 1.6 | 0.00 | 0.00 | 0.00 | 84 | 1010.3 |
| 20260901054005 | 22 | 117 | 0.0 | 1.6 | 0.00 | 0.00 | 0.00 | 83 | 1010.3 |
| 20260901053505 | 22 | 117 | 0.0 | 1.6 | 0.00 | 0.00 | 0.00 | 83 | 1010.1 |
| 20260901053006 | 22 | 117 | 0.0 | 1.6 | 0.00 | 0.00 | 0.00 | 84 | 1010.1 |
| 20260901052506 | 21 | 117 | 0.0 | 3.2 | 0.00 | 0.00 | 0.00 | 84 | 1010.0 |
| 20260901052006 | 22 | 117 | 0.0 | 1.6 | 0.00 | 0.00 | 0.00 | 84 | 1009.9 |
| 20260901051505 | 22 | 117 | 0.0 | 1.6 | 0.00 | 0.00 | 0.00 | 84 | 1009.9 |
| 20260901051009 | 22 | 117 | 0.0 | 0.0 | 0.00 | 0.00 | 0.00 | 83 | 1009.8 |
| 20260901045511 | 22 | 117 | 0.0 | 0.0 | 0.00 | 0.00 | 0.00 | 83 | 1009.7 |
| 20260901044507 | 22 | 117 | 0.0 | 3.2 | 0.00 | 0.00 | 0.00 | 83 | 1009.7 |
| 20260901044006 | 22 | 117 | 0.0 | 1.6 | 0.00 | 0.00 | 0.00 | 83 | 1009.6 |
| 20260901043505 | 22 | 117 | 0.0 | 0.0 | 0.00 | 0.00 | 0.00 | 83 | 1009.6 |
| 20260901043005 | 22 | 117 | 0.0 | 0.0 | 0.00 | 0.00 | 0.00 | 84 | 1009.6 |
| 20260901042006 | 22 | 117 | 0.0 | 0.0 | 0.00 | 0.00 | 0.00 | 84 | 1009.6 |
| 20260901041006 | 22 | 117 | 0.0 | 0.0 | 0.00 | 0.00 | 0.00 | 84 | 1009.5 |
| 20260901040506 | 22 | 117 | 0.0 | 0.0 | 0.00 | 0.00 | 0.00 | 85 | 1009.6 |
| 20260901035506 | 22 | 117 | 0.0 | 0.0 | 0.00 | 0.00 | 0.00 | 85 | 1009.5 |
| 20260901035006 | 22 | 117 | 0.0 | 0.0 | 0.00 | 0.00 | 0.00 | 85 | 1009.5 |
| 20260901034505 | 22 | 117 | 0.0 | 0.0 | 0.00 | 0.00 | 0.00 | 85 | 1009.5 |
| 20260901034005 | 23 | 117 | 0.0 | 0.0 | 0.00 | 0.00 | 0.00 | 85 | 1009.4 |
| 20260901033506 | 23 | 117 | 0.0 | 0.0 | 0.00 | 0.00 | 0.00 | 84 | 1009.4 |
| 20260901033006 | 23 | 117 | 0.0 | 0.0 | 0.00 | 0.00 | 0.00 | 85 | 1009.3 |
| 20260901032006 | 23 | 117 | 0.0 | 0.0 | 0.00 | 0.00 | 0.00 | 84 | 1009.4 |
| 20260901031006 | 23 | 117 | 0.0 | 0.0 | 0.00 | 0.00 | 0.00 | 84 | 1009.4 |
| 20260901030506 | 23 | 117 | 0.0 | 0.0 | 0.00 | 0.00 | 0.00 | 84 | 1009.3 |
| 20260901025006 | 24 | 117 | 0.0 | 3.2 | 0.00 | 0.00 | 0.00 | 84 | 1009.3 |
| 20260901024505 | 24 | 117 | 0.0 | 1.6 | 0.00 | 0.00 | 0.00 | 83 | 1009.3 |
| 20260901024006 | 24 | 117 | 0.0 | 1.6 | 0.00 | 0.00 | 0.00 | 83 | 1009.2 |
| 20260901023506 | 24 | 117 | 0.0 | 0.0 | 0.00 | 0.00 | 0.00 | 83 | 1009.2 |
| 20260901022505 | 25 | 117 | 0.0 | 3.2 | 0.00 | 0.00 | 0.00 | 82 | 1009.1 |
| 20260901022006 | 25 | 117 | 0.0 | 0.0 | 0.00 | 0.00 | 0.00 | 83 | 1009.0 |
| 20260901021505 | 25 | 117 | 0.0 | 0.0 | 0.00 | 0.00 | 0.00 | 83 | 1009.0 |
| 20260901021006 | 25 | 117 | 0.0 | 0.0 | 0.00 | 0.00 | 0.00 | 83 | 1009.1 |
| 20260901020506 | 25 | 117 | 0.0 | 0.0 | 0.00 | 0.00 | 0.00 | 83 | 1009.1 |
| 20260901020005 | 25 | 117 | 0.0 | 0.0 | 0.00 | 0.00 | 0.00 | 83 | 1009.0 |
| 20260901015506 | 25 | 117 | 0.0 | 0.0 | 0.00 | 0.00 | 0.00 | 83 | 1009.0 |
| 20260901015006 | 25 | 117 | 0.0 | 0.0 | 0.00 | 0.00 | 0.00 | 84 | 1008.9 |
| 20260901014006 | 26 | 117 | 0.0 | 0.0 | 0.00 | 0.00 | 0.00 | 85 | 1008.7 |
| 20260901013006 | 26 | 117 | 0.0 | 1.6 | 0.00 | 0.00 | 0.00 | 85 | 1008.6 |
| 20260901012506 | 26 | 117 | 0.0 | 0.0 | 0.00 | 0.00 | 0.00 | 85 | 1008.6 |
| 20260901012006 | 26 | 117 | 0.0 | 0.0 | 0.00 | 0.00 | 0.00 | 85 | 1008.6 |
| 20260901011505 | 26 | 117 | 0.0 | 0.0 | 0.00 | 0.00 | 0.00 | 85 | 1008.6 |
| 20260901011005 | 26 | 117 | 0.0 | 0.0 | 0.00 | 0.00 | 0.00 | 85 | 1008.5 |
| 20260901010506 | 27 | 117 | 0.0 | 1.6 | 0.00 | 0.00 | 0.00 | 84 | 1008.5 |
| 20260901005505 | 27 | 117 | 0.0 | 1.6 | 0.00 | 0.00 | 0.00 | 83 | 1008.3 |
| 20260901005006 | 27 | 173 | 0.0 | 1.6 | 0.00 | 0.00 | 0.00 | 83 | 1008.3 |
| 20260901004506 | 27 | 173 | 0.0 | 1.6 | 0.00 | 0.00 | 0.00 | 83 | 1008.3 |
| 20260901004006 | 27 | 173 | 0.0 | 1.6 | 0.00 | 0.00 | 0.00 | 83 | 1008.3 |
| 20260901003505 | 27 | 173 | 0.0 | 1.6 | 0.00 | 0.00 | 0.00 | 83 | 1008.3 |
| 20260901002505 | 28 | 173 | 0.0 | 1.6 | 0.00 | 0.00 | 0.00 | 82 | 1008.3 |
| 20260901002006 | 28 | 173 | 1.6 | 1.6 | 0.00 | 0.00 | 0.00 | 82 | 1008.2 |
| 20260901001506 | 28 | 173 | 0.0 | 4.8 | 0.00 | 0.00 | 0.00 | 81 | 1008.2 |
| 20260901001006 | 28 | 173 | 1.6 | 4.8 | 0.00 | 0.00 | 0.00 | 81 | 1008.1 |
| 20260901000505 | 28 | 173 | 1.6 | 3.2 | 0.00 | 0.00 | 0.00 | 80 | 1008.1 |
| 20260901000005 | 28 | 173 | 0.0 | 1.6 | 0.00 | 0.00 | 0.00 | 80 | 1008.1 |
| 20260831235506 | 28 | 173 | 0.0 | 3.2 | 0.00 | 0.00 | 0.00 | 80 | 1008.0 |
| 20260831234505 | 28 | 173 | 0.0 | 3.2 | 0.00 | 0.00 | 0.00 | 79 | 1008.0 |
| 20260831234006 | 28 | 173 | 0.0 | 3.2 | 0.00 | 0.00 | 0.00 | 78 | 1007.9 |
| 20260831233505 | 28 | 173 | 0.0 | 1.6 | 0.00 | 0.00 | 0.00 | 78 | 1008.0 |
| 20260831233006 | 28 | 173 | 0.0 | 3.2 | 0.00 | 0.00 | 0.00 | 78 | 1008.0 |
| 20260831232005 | 28 | 173 | 0.0 | 1.6 | 0.00 | 0.00 | 0.00 | 77 | 1008.0 |
| 20260831231006 | 28 | 173 | 0.0 | 3.2 | 0.00 | 0.00 | 0.00 | 76 | 1007.9 |
| 20260831230505 | 28 | 173 | 0.0 | 3.2 | 0.00 | 0.00 | 0.00 | 75 | 1007.9 |
| 20260831230006 | 28 | 173 | 0.0 | 3.2 | 0.00 | 0.00 | 0.00 | 76 | 1008.0 |
| 20260831225505 | 28 | 173 | 1.6 | 3.2 | 0.00 | 0.00 | 0.00 | 75 | 1007.9 |
| 20260831225006 | 28 | 173 | 0.0 | 3.2 | 0.00 | 0.00 | 0.00 | 75 | 1007.9 |
| 20260831224006 | 29 | 173 | 0.0 | 1.6 | 0.00 | 0.00 | 0.00 | 76 | 1007.9 |
| 20260831223005 | 29 | 173 | 0.0 | 1.6 | 0.00 | 0.00 | 0.00 | 75 | 1007.7 |
| 20260831222505 | 29 | 173 | 0.0 | 3.2 | 0.00 | 0.00 | 0.00 | 75 | 1007.8 |
| 20260831222006 | 29 | 173 | 0.0 | 3.2 | 0.00 | 0.00 | 0.00 | 76 | 1007.8 |
| 20260831221505 | 29 | 173 | 1.6 | 3.2 | 0.00 | 0.00 | 0.00 | 76 | 1007.8 |
| 20260831221006 | 29 | 173 | 0.0 | 3.2 | 0.00 | 0.00 | 0.00 | 76 | 1007.8 |
| 20260831220006 | 29 | 173 | 0.0 | 3.2 | 0.00 | 0.00 | 0.00 | 74 | 1007.7 |
| 20260831215505 | 29 | 173 | 1.6 | 3.2 | 0.00 | 0.00 | 0.00 | 75 | 1007.8 |
| 20260831215006 | 29 | 173 | 0.0 | 3.2 | 0.00 | 0.00 | 0.00 | 75 | 1007.7 |
| 20260831214505 | 29 | 173 | 1.6 | 3.2 | 0.00 | 0.00 | 0.00 | 74 | 1007.8 |
| 20260831214005 | 29 | 173 | 1.6 | 3.2 | 0.00 | 0.00 | 0.00 | 74 | 1007.7 |
| 20260831213505 | 29 | 173 | 1.6 | 4.8 | 0.00 | 0.00 | 0.00 | 73 | 1007.6 |
| 20260831213005 | 29 | 173 | 1.6 | 4.8 | 0.00 | 0.00 | 0.00 | 75 | 1007.7 |
| 20260831212506 | 29 | 173 | 0.0 | 3.2 | 0.00 | 0.00 | 0.00 | 75 | 1007.6 |
| 20260831212005 | 29 | 173 | 1.6 | 4.8 | 0.00 | 0.00 | 0.00 | 74 | 1007.6 |
| 20260831211505 | 29 | 173 | 0.0 | 3.2 | 0.00 | 0.00 | 0.00 | 76 | 1007.6 |
| 20260831211006 | 29 | 173 | 1.6 | 1.6 | 0.00 | 0.00 | 0.00 | 76 | 1007.6 |
| 20260831210505 | 29 | 173 | 0.0 | 3.2 | 0.00 | 0.00 | 0.00 | 77 | 1007.6 |
| 20260831210005 | 29 | 173 | 1.6 | 4.8 | 0.00 | 0.00 | 0.00 | 77 | 1007.7 |
| 20260831205505 | 29 | 173 | 0.0 | 1.6 | 0.00 | 0.00 | 0.00 | 76 | 1007.7 |
| 20260831204505 | 28 | 173 | 0.0 | 3.2 | 0.00 | 0.00 | 0.00 | 78 | 1007.6 |
| 20260831204006 | 28 | 173 | 0.0 | 0.0 | 0.00 | 0.00 | 0.00 | 77 | 1007.6 |
| 20260831203506 | 28 | 173 | 0.0 | 0.0 | 0.00 | 0.00 | 0.00 | 79 | 1007.4 |
| 20260831203006 | 28 | 173 | 0.0 | 0.0 | 0.00 | 0.00 | 0.00 | 78 | 1007.5 |
| 20260831202505 | 28 | 173 | 0.0 | 0.0 | 0.00 | 0.00 | 0.00 | 78 | 1007.5 |
| 20260831202006 | 28 | 173 | 0.0 | 0.0 | 0.00 | 0.00 | 0.00 | 78 | 1007.5 |
| 20260831200506 | 28 | 173 | 0.0 | 1.6 | 0.00 | 0.00 | 0.00 | 78 | 1007.3 |
| 20260831200005 | 28 | 173 | 0.0 | 1.6 | 0.00 | 0.00 | 0.00 | 80 | 1007.2 |
| 20260831195505 | 28 | 173 | 0.0 | 1.6 | 0.00 | 0.00 | 0.00 | 79 | 1007.1 |
| 20260831194506 | 28 | 173 | 0.0 | 1.6 | 0.00 | 0.00 | 0.00 | 79 | 1007.1 |
| 20260831193505 | 28 | 173 | 0.0 | 3.2 | 0.00 | 0.00 | 0.00 | 80 | 1007.2 |
| 20260831193006 | 28 | 173 | 0.0 | 3.2 | 0.00 | 0.00 | 0.00 | 78 | 1007.2 |
| 20260831192506 | 28 | 173 | 0.0 | 4.8 | 0.00 | 0.00 | 0.00 | 79 | 1007.3 |
| 20260831191505 | 28 | 173 | 0.0 | 3.2 | 0.00 | 0.00 | 0.00 | 78 | 1007.4 |
| 20260831190506 | 28 | 173 | 0.0 | 1.6 | 0.00 | 0.00 | 0.00 | 79 | 1007.5 |
| 20260831190005 | 28 | 173 | 0.0 | 4.8 | 0.00 | 0.00 | 0.00 | 79 | 1007.3 |
| 20260831185505 | 28 | 173 | 0.0 | 4.8 | 0.00 | 0.00 | 0.00 | 78 | 1007.3 |
| 20260831185005 | 28 | 173 | 1.6 | 4.8 | 0.00 | 0.00 | 0.00 | 77 | 1007.3 |
| 20260831184506 | 28 | 173 | 0.0 | 4.8 | 0.00 | 0.00 | 0.00 | 77 | 1007.3 |
| 20260831184005 | 29 | 173 | 0.0 | 3.2 | 0.00 | 0.00 | 0.00 | 75 | 1007.2 |
| 20260831183505 | 29 | 173 | 0.0 | 3.2 | 0.00 | 0.00 | 0.00 | 74 | 1007.2 |
| 20260831183006 | 29 | 173 | 0.0 | 3.2 | 0.00 | 0.00 | 0.00 | 73 | 1007.1 |
| 20260831182505 | 30 | 173 | 1.6 | 3.2 | 0.00 | 0.00 | 0.00 | 72 | 1007.1 |
| 20260831182005 | 30 | 172 | 0.0 | 3.2 | 0.00 | 0.00 | 0.00 | 71 | 1007.1 |
| 20260831181505 | 30 | 172 | 0.0 | 1.6 | 0.00 | 0.00 | 0.00 | 70 | 1007.2 |
| 20260831181006 | 31 | 172 | 0.0 | 1.6 | 0.00 | 0.00 | 0.00 | 71 | 1007.1 |
| 20260831180506 | 31 | 172 | 0.0 | 3.2 | 0.00 | 0.00 | 0.00 | 71 | 1007.1 |
| 20260831175005 | 31 | 173 | 0.0 | 3.2 | 0.00 | 0.00 | 0.00 | 70 | 1007.3 |
| 20260831174005 | 30 | 172 | 0.0 | 3.2 | 0.00 | 0.00 | 0.00 | 68 | 1007.3 |
| 20260831173506 | 30 | 172 | 1.6 | 3.2 | 0.00 | 0.00 | 0.00 | 72 | 1007.4 |
| 20260831173006 | 30 | 172 | 0.0 | 1.6 | 0.00 | 0.00 | 0.00 | 70 | 1007.3 |
| 20260831172006 | 30 | 172 | 0.0 | 1.6 | 0.00 | 0.00 | 0.00 | 70 | 1007.5 |
| 20260831171505 | 30 | 172 | 0.0 | 1.6 | 0.00 | 0.00 | 0.00 | 71 | 1007.5 |
| 20260831171006 | 30 | 172 | 1.6 | 3.2 | 0.00 | 0.00 | 0.00 | 72 | 1007.6 |
| 20260831170506 | 30 | 172 | 1.6 | 3.2 | 0.00 | 0.00 | 0.00 | 72 | 1007.6 |
| 20260831170005 | 29 | 254 | 0.0 | 3.2 | 0.00 | 0.00 | 0.00 | 77 | 1007.7 |
| 20260831165006 | 29 | 226 | 0.0 | 1.6 | 0.00 | 0.00 | 0.00 | 75 | 1007.8 |
| 20260831164505 | 29 | 226 | 0.0 | 1.6 | 0.00 | 0.00 | 0.00 | 76 | 1007.7 |
| 20260831164005 | 29 | 226 | 1.6 | 4.8 | 0.00 | 0.00 | 0.00 | 74 | 1007.7 |
| 20260831162505 | 29 | 169 | 0.0 | 1.6 | 0.00 | 0.00 | 0.00 | 76 | 1007.5 |
| 20260831161505 | 29 | 169 | 0.0 | 1.6 | 0.00 | 0.00 | 0.00 | 76 | 1007.5 |
| 20260831160505 | 28 | 169 | 0.0 | 1.6 | 0.00 | 0.00 | 0.00 | 75 | 1007.4 |
| 20260831160005 | 28 | 169 | 0.0 | 3.2 | 0.00 | 0.00 | 0.00 | 76 | 1007.3 |
| 20260831155005 | 28 | 169 | 0.0 | 3.2 | 0.00 | 0.00 | 0.00 | 76 | 1007.2 |
| 20260831154505 | 28 | 169 | 0.0 | 3.2 | 0.00 | 0.00 | 0.00 | 77 | 1007.3 |
| 20260831154005 | 28 | 169 | 0.0 | 3.2 | 0.00 | 0.00 | 0.00 | 78 | 1007.3 |
| 20260831153006 | 28 | 169 | 0.0 | 3.2 | 0.00 | 0.00 | 0.00 | 80 | 1007.2 |
| 20260831152505 | 27 | 169 | 0.0 | 1.6 | 0.00 | 0.00 | 0.00 | 79 | 1007.2 |
| 20260831152005 | 27 | 169 | 0.0 | 3.2 | 0.00 | 0.00 | 0.00 | 81 | 1007.1 |
| 20260831151005 | 26 | 169 | 0.0 | 1.6 | 0.00 | 0.00 | 0.00 | 83 | 1006.9 |
| 20260831150005 | 26 | 169 | 1.6 | 3.2 | 0.00 | 0.00 | 0.00 | 83 | 1006.6 |
| 20260831145505 | 26 | 169 | 0.0 | 3.2 | 0.00 | 0.00 | 0.00 | 84 | 1006.6 |
| 20260831145005 | 26 | 169 | 1.6 | 3.2 | 0.00 | 0.00 | 0.00 | 85 | 1006.5 |
| 20260831144505 | 26 | 169 | 0.0 | 3.2 | 0.00 | 0.00 | 0.00 | 86 | 1006.5 |
| 20260831144005 | 25 | 169 | 1.6 | 3.2 | 0.00 | 0.00 | 0.00 | 85 | 1006.5 |
| 20260831143005 | 25 | 169 | 1.6 | 3.2 | 0.00 | 0.00 | 0.00 | 86 | 1006.5 |
| 20260831142006 | 25 | 169 | 1.6 | 3.2 | 0.00 | 0.00 | 0.00 | 87 | 1006.5 |
| 20260831141505 | 25 | 169 | 1.6 | 3.2 | 0.00 | 0.00 | 0.00 | 88 | 1006.4 |
| 20260831141006 | 25 | 169 | 1.6 | 3.2 | 0.00 | 0.00 | 0.00 | 89 | 1006.5 |
| 20260831140506 | 25 | 169 | 0.0 | 3.2 | 0.00 | 0.00 | 0.00 | 89 | 1006.5 |
| 20260831140005 | 24 | 169 | 1.6 | 3.2 | 0.00 | 0.00 | 0.00 | 90 | 1006.5 |
| 20260831135505 | 24 | 169 | 1.6 | 3.2 | 0.00 | 0.00 | 0.00 | 90 | 1006.4 |
| 20260831135005 | 24 | 169 | 0.0 | 3.2 | 0.00 | 0.00 | 0.00 | 90 | 1006.3 |
| 20260831134005 | 23 | 169 | 1.6 | 3.2 | 0.00 | 0.00 | 0.00 | 91 | 1006.3 |
| 20260831133505 | 23 | 169 | 1.6 | 8.0 | 0.00 | 0.00 | 0.00 | 91 | 1006.3 |
| 20260831133005 | 23 | 169 | 3.2 | 9.7 | 0.00 | 0.00 | 0.00 | 91 | 1006.2 |
| 20260831132505 | 23 | 169 | 4.8 | 8.0 | 0.00 | 0.00 | 0.00 | 91 | 1006.1 |
| 20260831132006 | 23 | 158 | 3.2 | 8.0 | 0.00 | 0.00 | 0.00 | 92 | 1006.0 |
| 20260831131505 | 22 | 158 | 3.2 | 8.0 | 0.00 | 0.00 | 0.00 | 92 | 1006.0 |
| 20260831131005 | 22 | 158 | 3.2 | 4.8 | 0.00 | 0.00 | 0.00 | 92 | 1005.9 |
| 20260831130505 | 22 | 158 | 1.6 | 4.8 | 0.00 | 0.00 | 0.00 | 92 | 1005.8 |
| 20260831125514 | 22 | 158 | 1.6 | 4.8 | 0.00 | 0.00 | 0.00 | 92 | 1005.9 |
| 20260831125006 | 21 | 158 | 1.6 | 3.2 | 0.00 | 0.00 | 0.00 | 92 | 1005.9 |
| 20260831124505 | 21 | 158 | 1.6 | 3.2 | 0.00 | 0.00 | 0.00 | 92 | 1005.9 |
| 20260831124006 | 21 | 158 | 1.6 | 4.8 | 0.00 | 0.00 | 0.00 | 92 | 1005.8 |
| 20260831123505 | 21 | 158 | 3.2 | 8.0 | 0.00 | 0.00 | 0.00 | 92 | 1005.9 |
| 20260831123005 | 21 | 158 | 3.2 | 4.8 | 0.00 | 0.00 | 0.00 | 92 | 1005.8 |
| 20260831122505 | 21 | 158 | 3.2 | 4.8 | 0.00 | 0.00 | 0.00 | 92 | 1005.6 |
| 20260831122005 | 21 | 158 | 3.2 | 8.0 | 0.00 | 0.00 | 0.00 | 92 | 1005.6 |
| 20260831121505 | 21 | 158 | 3.2 | 4.8 | 0.00 | 0.00 | 0.00 | 92 | 1005.4 |
| 20260831121006 | 21 | 158 | 3.2 | 4.8 | 0.00 | 0.00 | 0.00 | 92 | 1005.4 |
| 20260831120506 | 21 | 158 | 1.6 | 4.8 | 0.00 | 0.00 | 0.00 | 92 | 1005.3 |
| 20260831120005 | 21 | 158 | 1.6 | 3.2 | 0.00 | 0.00 | 0.00 | 92 | 1005.3 |
| 20260831115505 | 21 | 158 | 0.0 | 3.2 | 0.00 | 0.00 | 0.00 | 92 | 1005.3 |
| 20260831115005 | 21 | 158 | 1.6 | 3.2 | 0.00 | 0.00 | 0.00 | 92 | 1005.3 |
| 20260831114505 | 21 | 158 | 3.2 | 4.8 | 0.00 | 0.00 | 0.00 | 92 | 1005.3 |
| 20260831114005 | 21 | 158 | 1.6 | 3.2 | 0.00 | 0.00 | 0.00 | 92 | 1005.3 |
| 20260831113505 | 21 | 158 | 1.6 | 4.8 | 0.00 | 0.00 | 0.00 | 92 | 1005.1 |
| 20260831113005 | 21 | 158 | 1.6 | 3.2 | 0.00 | 0.00 | 0.00 | 92 | 1005.1 |
| 20260831112005 | 21 | 158 | 0.0 | 0.0 | 0.00 | 0.00 | 0.00 | 92 | 1005.2 |
| 20260831111506 | 21 | 158 | 0.0 | 0.0 | 0.00 | 0.00 | 0.00 | 92 | 1005.0 |
| 20260831110505 | 21 | 158 | 0.0 | 4.8 | 0.00 | 0.00 | 0.00 | 92 | 1005.1 |
| 20260831110005 | 21 | 158 | 3.2 | 8.0 | 0.00 | 0.00 | 0.00 | 92 | 1005.2 |
| 20260831105505 | 21 | 158 | 3.2 | 8.0 | 0.00 | 0.00 | 0.00 | 92 | 1005.2 |
| 20260831105005 | 21 | 158 | 1.6 | 3.2 | 0.00 | 0.00 | 0.00 | 92 | 1005.1 |
| 20260831104505 | 21 | 158 | 3.2 | 4.8 | 0.00 | 0.00 | 0.00 | 92 | 1005.0 |
| 20260831104006 | 21 | 150 | 1.6 | 4.8 | 0.00 | 0.00 | 0.00 | 92 | 1005.0 |
| 20260831103505 | 21 | 149 | 3.2 | 4.8 | 0.00 | 0.00 | 0.00 | 92 | 1005.1 |
| 20260831103005 | 21 | 149 | 1.6 | 4.8 | 0.00 | 0.00 | 0.00 | 92 | 1005.2 |
| 20260831102505 | 21 | 149 | 0.0 | 3.2 | 0.00 | 0.00 | 0.00 | 92 | 1005.3 |
| 20260831102006 | 21 | 149 | 1.6 | 4.8 | 0.00 | 0.00 | 0.00 | 91 | 1005.2 |
| 20260831100505 | 21 | 149 | 1.6 | 4.8 | 0.00 | 0.00 | 0.00 | 91 | 1005.2 |
| 20260831095505 | 21 | 149 | 1.6 | 4.8 | 0.00 | 0.00 | 0.00 | 91 | 1005.2 |
| 20260831095005 | 21 | 149 | 1.6 | 4.8 | 0.00 | 0.00 | 0.00 | 91 | 1005.2 |
| 20260831094005 | 21 | 149 | 1.6 | 3.2 | 0.00 | 0.00 | 0.00 | 91 | 1005.4 |
| 20260831093005 | 22 | 149 | 0.0 | 1.6 | 0.00 | 0.00 | 0.00 | 91 | 1005.2 |
| 20260831092505 | 22 | 149 | 1.6 | 3.2 | 0.00 | 0.00 | 0.00 | 91 | 1005.2 |
| 20260831092007 | 22 | 149 | 1.6 | 4.8 | 0.00 | 0.00 | 0.00 | 91 | 1005.2 |
| 20260831091506 | 22 | 149 | 1.6 | 4.8 | 0.00 | 0.00 | 0.00 | 91 | 1005.1 |
| 20260831091006 | 22 | 149 | 0.0 | 1.6 | 0.00 | 0.00 | 0.00 | 91 | 1005.2 |
| 20260831090506 | 22 | 149 | 0.0 | 0.0 | 0.00 | 0.00 | 0.00 | 91 | 1005.3 |
| 20260831090006 | 22 | 149 | 0.0 | 3.2 | 0.00 | 0.00 | 0.00 | 91 | 1005.2 |
| 20260831085506 | 22 | 149 | 0.0 | 3.2 | 0.00 | 0.00 | 0.00 | 91 | 1005.3 |
| 20260831085006 | 22 | 149 | 1.6 | 3.2 | 0.00 | 0.00 | 0.00 | 91 | 1005.3 |
| 20260831084506 | 22 | 149 | 0.0 | 3.2 | 0.00 | 0.00 | 0.00 | 91 | 1005.3 |
| 20260831084006 | 22 | 149 | 1.6 | 4.8 | 0.00 | 0.00 | 0.00 | 91 | 1005.2 |
| 20260831083506 | 22 | 149 | 1.6 | 3.2 | 0.00 | 0.00 | 0.00 | 90 | 1005.0 |
| 20260831083008 | 22 | 149 | 1.6 | 4.8 | 0.00 | 0.00 | 0.00 | 90 | 1005.0 |
| 20260831082506 | 22 | 154 | 1.6 | 4.8 | 0.00 | 0.00 | 0.00 | 91 | 1005.0 |